Location: Rye Grass Spring
(37.5972°N, 115.4261°W)
Time: 21:35:34
(UTC+00:00)

Daily predictions for brighter satellites

Satellite Brightness Start Highest point End
(mag) Time Altitude Azimuth Time Altitude Azimuth Time Altitude Azimuth
ATLAS 3B R/B 3.7 12:20:33 34° NNW 12:20:33 34° NNW 12:25:37 10° NNE
CENTAUR R/B 4.4 12:13:21 18° N 12:19:10 37° NE 12:27:36 10° ESE
Thor Agena Rocket 4.0 12:14:29 10° NNE 12:25:10 - S 12:19:02 59° ENE
Cosmos 2082 4.0 12:25:26 57° NNE 12:25:26 57° NNE 12:29:53 10° NNE
Cosmos 839 Rocket 4.5 12:29:56 57° NW 12:31:37 73° WSW 12:40:44 10° SSE
USA 229 DEB 4.1 12:35:06 41° NNW 12:35:06 41° NNW 12:39:58 10° NNE
USA 229 4.0 12:35:08 42° NNW 12:35:08 42° NNW 12:40:07 10° NNE
FengYun 1-2 T 4.1 12:36:06 10° NNE 12:41:36 87° E 12:47:05 10° SSW
TSX-5 4.1 12:46:59 74° NNE 12:46:59 74° NNE 12:51:46 10° NNE
Cosmos 1464 Rocket 4.3 12:41:13 10° S 12:47:24 66° E 12:53:42 10° NNE
Cosmos 1300 3.8 12:47:22 10° SSE 12:50:28 37° E 12:53:34 10° NNE
Cosmos 2263 Rocket 3.3 12:55:45 28° NNW 12:55:45 28° NNW 12:58:50 10° N
Cosmos 841 Rocket 4.4 12:58:49 31° SW 12:58:49 31° SW 13:01:54 10° S
SJ-11-01 4.1 12:53:40 10° NNE 12:58:21 89° WNW 13:02:59 10° SSW
Cosmos 2228 Rocket 2.9 12:58:03 68° NW 12:58:29 74° W 13:02:55 10° S
SL-16 R/B 2.2 12:59:27 50° WNW 13:00:17 54° WSW 13:05:47 10° S
IRAS Rocket 4.2 12:57:58 10° N 13:03:24 54° WNW 13:08:46 10° SW
ADEOS Rocket 3.5 12:57:30 10° NNE 13:03:37 66° ESE 13:10:22 10° S
Cosmos 968 Rocket 4.3 13:05:06 33° NNW 13:05:06 33° NNW 13:08:36 10° N
CBERS-1 3.9 12:59:17 10° N 13:04:20 69° WNW 13:09:23 10° SSW
Cosmos 1814 Rocket 4.3 13:02:14 14° N 13:06:50 67° ENE 13:12:01 10° SSE
Okean 1-7 2.9 13:11:10 14° N 13:14:43 86° E 13:18:52 10° S
Cosmos 1703 3.7 13:15:16 10° N 13:18:45 55° E 13:22:13 10° SSE
COSMO-SKYMED 1 2.6 13:16:54 10° S 13:21:08 55° W 13:23:25 25° NNW
Cosmos 1844 Rocket 2.9 13:17:38 10° SSW 13:23:13 73° ESE 13:28:48 10° NNE
USA 290 4.5 13:20:57 10° SSE 13:23:42 27° ESE 13:26:26 10° NE
Cosmos 371 Rocket 3.2 13:19:26 10° SSW 13:24:12 61° WNW 13:29:01 10° N
Cosmos 2227 4.1 13:21:02 10° SSW 13:26:39 71° WNW 13:32:23 10° NNE
Cosmos 1455 4.0 13:26:13 10° SSE 13:28:56 27° E 13:31:41 10° NNE
Cosmos 1437 Rocket 3.7 13:29:04 10° N 13:32:29 44° E 13:35:52 10° SSE
Cosmos 405 Rocket 2.3 13:31:11 10° SSW 13:34:34 60° W 13:38:01 10° N
YAOGAN 11 4.1 13:30:40 10° SSE 13:34:59 82° ENE 13:39:15 10° N
Cosmos 1758 3.2 13:32:30 10° S 13:36:13 83° E 13:39:59 10° N
BREEZE-M DEB (TANK) 4.3 13:39:53 10° N 13:40:36 11° NNE 13:41:20 10° NE
Aureole 3 4.4 13:35:23 10° N 13:40:40 81° E 13:47:00 10° S
Cosmos 1428 Rocket 4.4 13:36:51 10° N 13:42:58 88° W 13:49:05 10° S
ASTEX 1 3.8 13:40:16 10° N 13:44:47 38° WNW 13:49:18 10° SW
ERS-1 4.5 13:39:42 10° NNE 13:44:52 84° WNW 13:50:02 10° SSW
SJ-12 3.6 13:41:56 10° N 13:45:47 71° WNW 13:49:38 10° SSW
ARIANE 5 R/B 2.5 13:46:08 10° N 13:51:09 61° WNW 13:56:05 10° SSW
Cosmos 332 Rocket 3.9 13:49:08 10° SSW 13:53:56 81° ESE 13:58:45 10° NNE
CZ-2D R/B 3.3 13:56:12 10° N 13:59:26 41° WNW 14:02:39 10° SW
Cosmos 1634 Rocket 4.0 13:58:22 10° S 14:04:37 87° W 14:10:58 10° N
Cosmos 44 3.2 14:00:33 10° NW 14:04:43 54° WSW 14:09:03 10° SSE
SL-12 R/B(2) 4.4 13:57:15 10° SW 14:04:53 55° NW 14:14:07 10° NNE
Meteor 1-22 Rocket 4.3 13:59:23 10° SSW 14:05:11 59° W 14:10:48 10° N
Nadezhda 4 Rocket 4.4 14:00:30 10° NNW 14:06:18 41° W 14:12:08 10° SSW
Meteor 2-10 Rocket 3.9 14:01:58 10° SW 14:06:50 40° WNW 14:11:55 10° N
ARGOS Delta rocket 3.7 14:03:40 10° N 14:08:07 87° WNW 14:12:45 10° SSW
Cosmos 1844 3.8 14:02:46 10° SW 14:08:19 54° WNW 14:13:57 10° NNE
Cosmos 1953 3.7 14:05:39 10° SSE 14:09:12 40° E 14:12:45 10° NNE
CENTAUR R/B 3.5 14:01:49 10° NW 14:10:26 64° WSW 14:19:40 10° SSE
Cosmos 2195 Rocket 4.5 14:04:51 10° NNW 14:10:51 61° W 14:16:51 10° S
CORIOLIS 4.1 14:08:42 10° N 14:14:09 82° WNW 14:19:32 10° SSW
Cosmos 1825 2.3 14:11:51 10° NNW 14:14:34 32° W 14:17:17 10° SSW
Spot 4 Rocket 4.2 14:12:27 10° NNE 14:17:35 81° ESE 14:22:41 10° SSW
Meteor 1-24 Rocket 3.8 14:12:10 10° NNW 14:18:05 75° W 14:23:46 10° S
CSL-04 DEB 4.2 14:16:06 10° NNE 14:19:46 85° E 14:23:25 10° SSW
Cosmos 1933 Rocket 4.5 14:16:51 10° SW 14:20:28 26° WNW 14:24:08 10° NNW
Cosmos 1869 Rocket 3.9 14:19:01 10° SSW 14:23:04 40° W 14:27:11 10° N
IRS-P3 4.5 14:18:40 10° N 14:23:39 42° WNW 14:28:37 10° SW
Meteor 2-5 Rocket 3.9 14:21:49 10° NNW 14:27:41 64° W 14:33:29 10° S
Cosmos 1943 4.1 14:23:20 10° NW 14:28:08 30° WSW 14:32:55 10° SSW
SL-4 R/B 2.7 14:25:08 10° SSW 14:28:13 44° SE 14:31:21 10° ENE
